OE3XAM-13 Weather Reports


time (UTC)temp
F
wind
direction
speed
knots
gust
knots
rain 1hr
in
rain 24hr
in
rain mn
in
humidity
%
barometer
mb
20260506124128 80 0 1.7 0.0 0.00 0.00 0.00 31 969.0
20260506121128 78 0 4.3 0.0 0.00 0.00 0.00 31 970.0
20260506114128 76 0 0.9 0.0 0.00 0.00 0.00 34 970.0
20260506111128 74 0 1.7 0.0 0.00 0.00 0.00 35 970.0
20260506104128 74 0 1.7 0.0 0.00 0.00 0.00 36 970.0
20260506101128 74 0 1.7 0.0 0.00 0.00 0.00 37 971.0
20260506094128 74 0 0.9 0.0 0.00 0.00 0.00 37 971.0
20260506091128 72 0 0.9 0.0 0.00 0.00 0.00 40 971.0
20260506084128 70 0 0.9 0.0 0.00 0.00 0.00 47 972.0
20260506081128 68 0 0.0 0.0 0.00 0.00 0.00 51 972.0
20260506071128 64 0 2.6 0.0 0.00 0.00 0.00 60 973.0
20260506061128 59 0 0.0 0.0 0.00 0.00 0.00 71 973.0
20260506051128 53 0 0.0 0.0 0.00 0.00 0.00 80 973.0
20260506044128 51 0 0.0 0.0 0.00 0.00 0.00 79 973.0
20260506041128 51 0 0.9 0.0 0.00 0.00 0.00 79 973.0
20260506034128 52 0 0.9 0.0 0.00 0.00 0.00 77 973.0
20260506031128 53 0 1.7 0.0 0.00 0.00 0.00 75 973.0
20260506024128 54 0 0.9 0.0 0.00 0.00 0.00 73 973.0
20260506021128 56 0 0.9 0.0 0.00 0.00 0.00 69 973.0
20260506014128 58 0 0.9 0.0 0.00 0.00 0.00 64 973.0
20260506011128 59 0 3.5 0.0 0.00 0.00 0.00 64 973.0
20260506004128 60 0 1.7 0.0 0.00 0.00 0.00 65 972.0
20260506001128 59 0 1.7 0.0 0.00 0.00 0.00 67 973.0
20260505234128 58 0 1.7 0.0 0.00 0.00 0.00 69 972.0
20260505231128 57 0 6.1 0.0 0.00 0.00 0.00 71 972.0
20260505224128 58 0 0.9 0.0 0.00 0.00 0.00 69 971.0
20260505221128 60 0 0.0 0.0 0.00 0.00 0.00 67 971.0
20260505214128 61 0 1.7 0.0 0.00 0.00 0.00 64 971.0
20260505211128 63 0 0.9 0.0 0.00 0.00 0.00 58 971.0
20260505204128 63 0 0.0 0.0 0.00 0.00 0.00 57 971.0
20260505201128 64 0 4.3 0.0 0.00 0.00 0.00 56 970.0
20260505194128 65 0 4.3 0.0 0.00 0.00 0.00 52 970.0
20260505191128 68 0 3.5 0.0 0.00 0.00 0.00 43 969.0
20260505184128 67 0 4.3 0.0 0.00 0.00 0.00 47 968.0
20260505181128 69 0 0.0 0.0 0.00 0.00 0.00 42 967.0
20260505174128 76 0 0.0 0.0 0.00 0.00 0.00 31 967.0
20260505171128 78 0 2.6 0.0 0.00 0.00 0.00 27 967.0
20260505164128 80 0 6.1 0.0 0.00 0.00 0.00 24 968.0
20260505161128 83 0 5.2 0.0 0.00 0.00 0.00 24 967.0
20260505151128 83 0 3.5 0.0 0.00 0.00 0.00 23 968.0